• In Deutschland
  • Länderverzeichnis
  • Für 7 Tage
  • Wassertemperatur
  • Satellitenkarten
  • Wetterkarte
  • Widgets
  • user-avatar
    Anmelden

    Stündliche Wetter Lezhe

    Heute, 18 August, Samstag

    Zeit Temperatur Niederschläge Wind Luftdruck Luftfeuchtigkeit
    00:00 +21°C° 0 mm 2 m/S 737 mmHg 68%
    01:00 +21°C° 0 mm 2 m/S 737 mmHg 70%
    02:00 +21°C° 0,1 mm 2 m/S 737 mmHg 71%
    03:00 +21°C° 0,1 mm 2 m/S 737 mmHg 72%
    04:00 +21°C° 0,1 mm 2 m/S 737 mmHg 72%
    05:00 +23°C° 0 mm 2 m/S 737 mmHg 69%
    06:00 +25°C° 0 mm 2 m/S 737 mmHg 65%
    07:00 +25°C° 0 mm 3 m/S 737 mmHg 72%
    08:00 +27°C° 0 mm 3 m/S 737 mmHg 64%
    09:00 +29°C° 0 mm 2 m/S 737 mmHg 56%
    10:00 +31°C° 0 mm 2 m/S 737 mmHg 47%
    11:00 +31°C° 0,1 mm 3 m/S 737 mmHg 46%
    12:00 +33°C° 0,1 mm 3 m/S 737 mmHg 44%
    13:00 +34°C° 0,1 mm 3 m/S 737 mmHg 42%
    14:00 +33°C° 0,4 mm 3 m/S 737 mmHg 44%
    15:00 +33°C° 0,4 mm 3 m/S 737 mmHg 45%
    16:00 +33°C° 0,4 mm 3 m/S 737 mmHg 46%
    17:00 +30°C° 0,2 mm 3 m/S 737 mmHg 51%
    18:00 +28°C° 0,2 mm 3 m/S 737 mmHg 56%
    19:00 +26°C° 0,2 mm 3 m/S 737 mmHg 61%
    20:00 +25°C° 0,4 mm 3 m/S 738 mmHg 64%
    21:00 +24°C° 0,4 mm 3 m/S 738 mmHg 68%
    22:00 +24°C° 0,4 mm 2 m/S 738 mmHg 71%
    23:00 +22°C° 0,5 mm 3 m/S 738 mmHg 72%

    Morgen, 19 August, Sonntag

    Zeit Temperatur Niederschläge Wind Luftdruck Luftfeuchtigkeit
    00:00 +22°C° 0,5 mm 3 m/S 738 mmHg 72%
    01:00 +22°C° 0,5 mm 3 m/S 738 mmHg 73%
    02:00 +22°C° 0,2 mm 3 m/S 738 mmHg 73%
    03:00 +21°C° 0,2 mm 3 m/S 738 mmHg 72%
    04:00 +21°C° 0,2 mm 3 m/S 738 mmHg 72%
    05:00 +22°C° 0,1 mm 3 m/S 738 mmHg 69%
    06:00 +25°C° 0,1 mm 3 m/S 738 mmHg 67%
    07:00 +26°C° 0,1 mm 3 m/S 738 mmHg 64%
    08:00 +28°C° 0 mm 2 m/S 738 mmHg 56%
    09:00 +30°C° 0 mm 2 m/S 738 mmHg 48%
    10:00 +32°C° 0 mm 2 m/S 738 mmHg 40%
    11:00 +32°C° 0,1 mm 2 m/S 738 mmHg 39%
    12:00 +34°C° 0,1 mm 2 m/S 738 mmHg 39%
    13:00 +34°C° 0,1 mm 3 m/S 737 mmHg 38%
    14:00 +34°C° 0,2 mm 3 m/S 737 mmHg 40%
    15:00 +33°C° 0,2 mm 3 m/S 737 mmHg 41%
    16:00 +33°C° 0,2 mm 3 m/S 737 mmHg 43%
    17:00 +30°C° 0,3 mm 3 m/S 737 mmHg 47%
    18:00 +28°C° 0,3 mm 3 m/S 737 mmHg 52%
    19:00 +26°C° 0,3 mm 3 m/S 737 mmHg 56%
    20:00 +26°C° 0,4 mm 3 m/S 737 mmHg 59%
    21:00 +25°C° 0,4 mm 3 m/S 737 mmHg 62%
    22:00 +24°C° 0,4 mm 3 m/S 737 mmHg 64%
    23:00 +24°C° 0,1 mm 3 m/S 737 mmHg 64%

    übermorgen, 20 August, Montag

    Zeit Temperatur Niederschläge Wind Luftdruck Luftfeuchtigkeit
    00:00 +22°C° 0,1 mm 3 m/S 737 mmHg 64%
    01:00 +22°C° 0,1 mm 3 m/S 737 mmHg 64%
    02:00 +22°C° 0 mm 3 m/S 736 mmHg 64%
    03:00 +22°C° 0 mm 3 m/S 736 mmHg 64%
    04:00 +21°C° 0 mm 3 m/S 736 mmHg 64%
    05:00 +22°C° 0,1 mm 3 m/S 736 mmHg 62%
    06:00 +25°C° 0,1 mm 3 m/S 737 mmHg 60%
    07:00 +26°C° 0,1 mm 3 m/S 737 mmHg 58%
    08:00 +28°C° 0 mm 3 m/S 737 mmHg 51%
    09:00 +30°C° 0 mm 3 m/S 737 mmHg 45%
    10:00 +32°C° 0 mm 2 m/S 737 mmHg 38%
    11:00 +32°C° 0,1 mm 2 m/S 737 mmHg 37%
    12:00 +34°C° 0,1 mm 2 m/S 736 mmHg 36%
    13:00 +35°C° 0,1 mm 2 m/S 736 mmHg 34%
    14:00 +34°C° 0,2 mm 3 m/S 736 mmHg 37%
    15:00 +33°C° 0,2 mm 3 m/S 736 mmHg 39%
    16:00 +33°C° 0,2 mm 3 m/S 736 mmHg 41%
    17:00 +30°C° 0,3 mm 3 m/S 736 mmHg 46%
    18:00 +28°C° 0,3 mm 3 m/S 736 mmHg 51%
    19:00 +26°C° 0,3 mm 3 m/S 736 mmHg 57%
    20:00 +25°C° 0,5 mm 3 m/S 736 mmHg 59%
    21:00 +25°C° 0,5 mm 3 m/S 736 mmHg 62%
    22:00 +24°C° 0,5 mm 3 m/S 736 mmHg 65%
    23:00 +24°C° 0,4 mm 3 m/S 736 mmHg 66%

    21 August, Dienstag

    Zeit Temperatur Niederschläge Wind Luftdruck Luftfeuchtigkeit
    00:00 +24°C° 0,4 mm 3 m/S 736 mmHg 67%
    01:00 +22°C° 0,4 mm 3 m/S 736 mmHg 68%
    02:00 +22°C° 0,3 mm 3 m/S 736 mmHg 69%
    03:00 +22°C° 0,3 mm 3 m/S 736 mmHg 69%
    04:00 +22°C° 0,3 mm 3 m/S 736 mmHg 70%
    05:00 +24°C° 0,1 mm 3 m/S 736 mmHg 68%
    06:00 +25°C° 0,1 mm 3 m/S 737 mmHg 65%
    07:00 +26°C° 0,1 mm 3 m/S 737 mmHg 63%
    08:00 +28°C° 0 mm 2 m/S 737 mmHg 56%
    09:00 +29°C° 0 mm 2 m/S 737 mmHg 48%
    10:00 +31°C° 0 mm 2 m/S 737 mmHg 41%
    11:00 +32°C° 0 mm 2 m/S 737 mmHg 39%
    12:00 +34°C° 0 mm 2 m/S 737 mmHg 38%
    13:00 +34°C° 0 mm 3 m/S 737 mmHg 36%
    14:00 +34°C° 0,1 mm 3 m/S 736 mmHg 38%
    15:00 +33°C° 0,1 mm 3 m/S 736 mmHg 39%
    16:00 +33°C° 0,1 mm 3 m/S 736 mmHg 40%
    17:00 +30°C° 0 mm 3 m/S 736 mmHg 44%
    18:00 +28°C° 0 mm 2 m/S 737 mmHg 47%
    19:00 +26°C° 0 mm 2 m/S 737 mmHg 50%
    20:00 +26°C° 0 mm 2 m/S 737 mmHg 51%
    21:00 +25°C° 0 mm 2 m/S 737 mmHg 51%
    22:00 +24°C° 0 mm 2 m/S 738 mmHg 52%
    23:00 +24°C° 0 mm 2 m/S 738 mmHg 55%

    22 August, Mittwoch

    Zeit Temperatur Niederschläge Wind Luftdruck Luftfeuchtigkeit
    00:00 +22°C° 0 mm 3 m/S 738 mmHg 57%
    01:00 +22°C° 0 mm 3 m/S 738 mmHg 60%
    02:00 +22°C° 0 mm 3 m/S 738 mmHg 62%
    03:00 +21°C° 0 mm 3 m/S 738 mmHg 63%
    04:00 +21°C° 0 mm 2 m/S 738 mmHg 65%
    05:00 +23°C° 0 mm 2 m/S 738 mmHg 62%
    06:00 +25°C° 0 mm 3 m/S 738 mmHg 60%
    07:00 +26°C° 0 mm 3 m/S 738 mmHg 58%
    08:00 +28°C° 0 mm 2 m/S 738 mmHg 50%
    09:00 +30°C° 0 mm 2 m/S 738 mmHg 43%
    10:00 +32°C° 0 mm 2 m/S 738 mmHg 35%
    11:00 +34°C° 0 mm 2 m/S 738 mmHg 33%
    12:00 +34°C° 0 mm 2 m/S 738 mmHg 31%
    13:00 +35°C° 0 mm 3 m/S 738 mmHg 29%
    14:00 +35°C° 0 mm 3 m/S 737 mmHg 30%
    15:00 +34°C° 0 mm 3 m/S 737 mmHg 32%
    16:00 +34°C° 0 mm 4 m/S 737 mmHg 33%
    17:00 +31°C° 0 mm 3 m/S 737 mmHg 37%
    18:00 +28°C° 0 mm 3 m/S 737 mmHg 41%
    19:00 +26°C° 0 mm 2 m/S 737 mmHg 44%
    20:00 +25°C° 0 mm 2 m/S 737 mmHg 43%
    21:00 +25°C° 0 mm 2 m/S 738 mmHg 42%
    22:00 +24°C° 0 mm 2 m/S 738 mmHg 41%
    23:00 +24°C° 0 mm 2 m/S 738 mmHg 43%

    23 August, Donnerstag

    Zeit Temperatur Niederschläge Wind Luftdruck Luftfeuchtigkeit
    00:00 +23°C° 0 mm 2 m/S 738 mmHg 44%
    01:00 +22°C° 0 mm 3 m/S 738 mmHg 45%
    02:00 +21°C° 0 mm 2 m/S 737 mmHg 46%
    03:00 +21°C° 0 mm 2 m/S 737 mmHg 47%
    04:00 +21°C° 0 mm 2 m/S 737 mmHg 48%
    05:00 +23°C° 0 mm 2 m/S 737 mmHg 48%
    06:00 +24°C° 0 mm 2 m/S 737 mmHg 47%
    07:00 +26°C° 0 mm 2 m/S 737 mmHg 47%
    08:00 +28°C° 0 mm 2 m/S 737 mmHg 41%
    09:00 +30°C° 0 mm 2 m/S 737 mmHg 36%
    10:00 +32°C° 0 mm 1 m/S 737 mmHg 30%
    11:00 +34°C° 0 mm 2 m/S 737 mmHg 29%
    12:00 +34°C° 0 mm 2 m/S 737 mmHg 28%
    13:00 +35°C° 0 mm 3 m/S 736 mmHg 27%
    14:00 +34°C° 0 mm 3 m/S 736 mmHg 29%
    15:00 +34°C° 0 mm 3 m/S 736 mmHg 31%
    16:00 +33°C° 0 mm 3 m/S 735 mmHg 33%
    17:00 +30°C° 0 mm 2 m/S 735 mmHg 38%
    18:00 +28°C° 0 mm 2 m/S 735 mmHg 43%
    19:00 +26°C° 0 mm 1 m/S 735 mmHg 47%
    20:00 +25°C° 0 mm 1 m/S 736 mmHg 47%
    21:00 +25°C° 0 mm 1 m/S 736 mmHg 47%
    22:00 +24°C° 0 mm 1 m/S 736 mmHg 47%
    23:00 +24°C° 0 mm 1 m/S 736 mmHg 47%
    Mehr zeigen